User: anonymous   Login
Location: Ward Pound Ridge Reservation
(41.2500°N, 73.6000°W)
Time: 10:49:24
(UTC-04:00)
Language:

Vanguard 2 Rocket - Orbit

View from above orbital plane
View from above orbital plane
View from above satellite
View from above satellite

Ground track
Ground track

The orbit data is extracted from the following two-line orbital elements,

1    12U 59001B   18228.91072923 +.00000072 +00000-0 +36401-4 0  9999
2    12 032.8971 176.8669 1666828 150.7936 219.7167 11.44251841203151
Epoch (UTC): 16 August 2018 21:51:27
Eccentricity: 0.1666828
inclination: 32.8971°
perigee height: 554 km
apogee height: 3327 km
right ascension of ascending node: 176.8669°
argument of perigee: 150.7936°
revolutions per day: 11.44251841
mean anomaly at epoch: 219.7167°
orbit number at epoch: 20315

The dashed part of the orbit path shows where the satellite is in the earth's shadow,  

DLR